Temperature
18 18 18 18 18 18 18 18 18 18 18 18 18 18 18 18 17 17 17 17 17 17 17 17 17 17 17 16 16 16 16 16 16 16 16 16 15 15
18 18 18 18 18 18 18 18 18 18 18 18 18 18 18 17 17 17 17 17 17 17 17 17 17 17 16 16 16 16 16 16 16 16 16 16 15 15
18 18 18 18 18 18 18 18 17 17 17 17 17 17 17 17 17 17 17 17 17 17 17 17 17 16 16 16 16 16 16 16 16 16 16 16 15 15
17 17 17 17 17 17 17 17 17 17 17 17 17 17 17 17 17 17 16 16 16 17 17 17 16 16 16 16 16 16 16 16 16 16 15 16 15 15
17 17 17 17 17 17 17 17 17 17 17 17 17 17 17 17 16 16 16 16 16 16 16 16 16 16 16 16 16 16 16 16 16 15 15 15 15 15
17 17 17 17 17 17 16 16 17 17 16 16 16 17 16 16 16 16 16 16 16 16 16 16 16 16 16 16 16 16 16 16 15 15 15 15 15 15
17 16 16 16 16 16 16 16 16 16 16 16 16 16 16 16 16 16 15 16 16 16 16 16 16 16 16 16 16 16 16 15 15 15 15 15 15 15
16 16 16 16 16 16 16 16 16 16 16 16 16 16 16 16 15 15 15 15 15 15 15 16 16 16 16 16 16 16 16 15 15 15 15 15 14 14
16 16 16 16 16 16 16 16 16 15 16 15 15 15 15 15 15 15 15 15 15 15 15 15 16 15 15 16 16 16 15 15 15 15 15 14 14 14
16 15 15 15 15 15 15 15 15 15 15 15 15 15 15 15 15 15 14 15 15 15 15 15 15 15 15 15 15 15 15 15 15 15 14 14 14 14
15 15 15 15 15 15 15 15 15 15 15 15 15 15 15 15 14 14 14 14 14 15 15 15 15 15 15 15 15 15 15 15 15 14 14 14 14 13
15 15 15 15 15 15 15 14 14 15 14 14 15 15 15 14 14 14 14 14 14 14 14 14 14 14 14 14 15 15 15 14 14 14 14 14 13 13
15 15 15 15 15 15 14 14 14 14 14 14 14 14 14 14 14 14 14 14 14 14 14 14 14 14 14 14 14 14 14 14 14 14 14 13 13 13
14 14 14 14 14 14 14 14 14 14 14 14 14 14 14 14 14 14 14 14 14 14 14 14 14 14 14 14 14 14 14 14 14 14 14 13 13 13
14 14 14 14 14 14 14 14 13 13 13 13 13 13 14 14 14 14 14 14 14 14 13 13 13 13 13 13 13 13 13 13 13 13 13 13 13 13
13 14 14 14 14 13 13 14 13 13 13 13 13 13 13 13 13 13 13 13 13 13 13 13 13 13 13 13 13 13 13 13 13 13 13 12 12 12
13 13 13 13 13 13 13 13 13 13 13 13 13 13 13 13 13 13 13 13 12 12 12 13 13 13 13 13 13 13 13 13 12 12 12 12 12 12
13 13 13 13 13 13 13 13 13 13 12 12 12 12 12 12 12 12 12 12 12 12 12 12 12 12 12 12 12 12 12 12 12 12 12 12 12 12
13 13 12 12 12 12 12 12 12 12 12 12 12 12 12 11 12 12 12 12 12 11 11 11 11 11 11 11 11 12 12 12 11 11 11 11 11 11
12 12 12 12 12 12 12 12 11 11 11 11 11 11 11 11 11 11 11 11 11 11 11 11 11 11 11 11 11 11 11 11 11 11 11 11 10 10
11 11 11 11 11 11 11 11 11 11 11 10 10 10 10 10 10 10 10 10 11 11 11 11 11 11 11 10 10 10 10 10 10 10 10 10 10 10
11 11 11 10 10 10 10 10 10 10 10 9 9 9 9 9 9 9 10 10 10 10 10 10 10 10 10 10 10 10 9 9 9 9 9 10 9 9
10 10 10 10 10 9 9 9 9 9 9 9 8 9 9 8 9 9 9 9 9 9 9 9 9 9 9 9 9 9 9 9 9 9 9 9 9 9
Wind_Speed
1 1 2 2 2 2 1 1 1 2 2 2 1 1 3 5 9 8 7 10 10 10 10 10 9 9 8 8 8 8 7 7 7 7 7 8 9 8
1 1 2 2 2 2 2 2 1 2 2 1 1 1 1 2 7 6 6 10 12 12 12 12 11 10 9 9 9 9 9 8 8 7 7 7 8 8
3 2 1 1 2 3 3 2 2 2 2 2 1 1 0 1 2 4 6 7 9 13 14 13 13 12 11 11 10 10 10 10 9 9 8 7 8 8
3 2 3 2 2 2 3 3 2 2 2 3 2 2 2 2 3 4 4 6 7 12 16 15 14 14 13 13 12 12 11 11 10 10 9 9 8 8
2 2 3 3 3 3 3 3 3 3 2 3 4 3 2 2 2 4 4 3 5 8 13 14 15 15 15 14 14 13 12 12 11 11 10 10 9 9
3 2 2 2 3 3 4 3 3 3 3 3 3 3 2 2 2 3 4 3 4 4 5 9 13 16 16 16 15 14 13 12 12 11 11 11 10 10
3 2 2 2 2 2 3 2 3 3 3 3 3 3 2 1 2 2 3 3 4 3 2 4 6 7 10 14 15 15 15 14 13 12 11 11 10 10
3 3 3 3 3 3 4 4 4 4 4 3 3 3 3 2 2 3 3 3 4 2 2 5 4 5 7 9 14 16 16 15 14 13 12 11 11 10
3 3 4 3 2 3 4 5 6 7 7 5 5 4 4 3 3 4 4 4 5 4 3 5 4 4 4 8 14 16 16 16 15 14 13 12 12 11
3 3 3 2 3 2 4 4 5 5 6 6 5 5 5 3 4 5 6 5 5 5 4 5 4 4 4 3 12 16 15 15 14 14 13 13 12 12
4 3 3 2 2 2 3 4 4 5 6 7 7 7 7 6 5 4 4 5 6 5 3 4 4 3 3 2 6 13 14 14 14 14 14 13 12 11
3 3 2 2 2 2 2 4 5 5 5 5 5 7 8 8 9 7 6 5 5 5 3 3 3 3 3 2 3 5 7 10 12 14 14 14 13 8
3 2 1 2 3 4 5 5 6 6 6 6 5 5 6 6 6 6 6 6 6 5 3 2 3 3 3 2 2 4 5 4 6 8 12 13 14 10
3 2 1 3 5 7 6 7 7 6 5 5 5 5 4 4 5 5 7 7 7 7 6 4 3 3 3 4 3 2 4 5 6 6 7 10 12 14
4 5 5 5 6 6 8 8 6 4 5 5 6 5 4 4 4 4 4 5 7 7 7 5 5 5 4 5 4 3 3 3 5 5 5 6 6 6
5 6 7 7 7 7 5 5 5 5 5 5 5 5 4 4 4 3 4 4 4 5 6 6 6 6 6 6 5 5 4 3 4 4 4 4 5 7
4 4 3 3 3 3 3 3 3 3 4 5 5 5 5 4 4 3 3 4 4 5 5 4 5 6 6 5 5 5 4 4 4 3 3 4 4 5
2 3 3 3 4 3 3 4 3 3 3 3 4 4 5 5 5 4 4 4 5 4 4 3 2 2 3 4 4 5 4 4 2 2 3 3 4 3
2 3 3 3 3 4 3 3 4 3 3 3 4 4 4 5 4 4 4 4 4 4 4 3 3 3 5 6 4 3 3 3 3 3 3 3 3 2
2 3 3 3 3 4 4 4 4 4 4 4 4 4 4 4 5 4 4 5 5 4 4 3 2 3 5 5 4 3 3 3 3 3 2 1 0 1
4 4 4 4 4 3 4 4 4 4 4 4 4 4 5 5 5 5 5 5 5 4 4 4 4 5 4 2 2 2 2 3 2 2 2 2 1 2
3 4 4 4 4 4 4 4 5 5 5 5 5 5 5 5 6 7 6 5 4 4 4 4 3 2 2 3 3 2 2 2 1 1 2 1 3 3
3 4 4 4 4 4 4 5 5 4 5 5 6 6 6 7 6 6 7 6 5 5 4 4 2 2 2 3 3 3 2 2 2 1 1 3 2 4
Wind_Direction
267 281 284 293 292 290 297 294 288 285 281 256 250 149 134 134 160 177 171 187 192 200 204 204 207 211 213 217 220 226 226 228 228 229 230 229 226 228
242 289 312 313 317 314 306 292 294 272 285 297 293 174 127 154 169 176 177 188 200 204 207 208 209 212 215 219 222 226 227 230 230 229 229 228 224 221
267 258 260 291 320 312 310 300 282 283 279 293 299 298 221 159 157 193 193 191 201 206 208 209 212 213 215 219 221 222 223 226 227 226 225 226 225 220
258 274 282 269 267 281 289 288 290 278 261 276 286 272 248 218 190 228 224 213 205 209 209 212 214 214 215 218 221 222 223 223 225 226 226 226 225 223
258 253 265 273 271 272 270 277 286 293 274 262 261 247 241 232 219 249 255 249 232 216 207 214 218 216 216 218 221 222 223 224 222 222 224 226 225 223
262 253 256 259 265 274 269 270 278 294 287 275 276 267 248 228 227 249 259 249 256 243 214 213 219 219 218 219 221 222 223 224 224 222 223 225 225 226
262 254 239 228 229 257 275 284 288 282 280 274 272 284 272 266 254 265 269 263 253 248 233 225 215 218 218 222 224 223 222 222 222 222 221 222 223 224
273 272 245 212 218 232 248 246 241 255 266 271 271 273 269 266 266 271 277 279 273 252 244 254 225 224 216 210 213 214 217 217 218 218 218 221 224 225
272 273 275 268 230 255 249 242 241 240 236 248 267 275 271 262 269 276 277 280 274 271 266 271 256 238 229 211 200 205 209 210 212 212 213 218 222 225
274 272 267 293 294 304 286 271 258 253 246 239 250 267 277 277 263 261 264 265 264 260 241 257 265 259 253 197 194 196 203 209 211 212 212 215 219 223
254 260 252 251 265 300 290 286 282 279 266 256 243 246 253 260 263 274 272 270 272 264 232 237 258 265 249 222 199 202 207 209 209 211 214 215 216 218
259 244 232 223 225 248 264 278 278 283 292 289 271 253 248 245 239 235 246 258 270 269 240 227 250 257 267 233 197 198 210 214 214 217 216 216 211 209
279 271 253 206 235 252 252 259 267 280 284 278 266 255 244 241 232 225 229 238 250 259 259 247 257 255 252 261 241 211 201 199 203 217 219 218 212 207
299 301 272 242 257 259 256 262 273 284 280 278 276 269 257 250 245 233 228 230 232 244 253 253 256 259 265 269 260 228 217 200 196 202 204 207 213 217
292 304 296 272 275 260 250 256 262 263 270 275 276 278 275 268 260 248 235 232 233 243 250 246 247 254 253 259 260 244 234 222 207 204 196 194 200 202
285 287 276 260 258 262 265 254 243 250 258 267 276 279 282 280 270 258 256 252 251 251 245 241 242 245 253 260 261 261 243 222 211 209 208 210 205 204
284 280 281 285 276 271 265 256 253 253 260 271 278 285 286 281 278 273 266 262 260 264 263 249 238 236 242 251 260 257 247 246 227 214 217 226 223 213
266 276 282 283 285 290 292 285 273 269 273 280 280 282 287 288 287 284 280 268 265 266 269 272 265 261 264 262 239 254 252 251 241 231 224 227 238 227
262 275 291 300 305 306 305 306 305 305 298 289 285 288 292 296 298 295 289 283 278 273 272 271 260 249 257 269 272 240 255 259 237 226 215 222 231 217
302 302 305 309 316 322 323 324 323 322 328 321 313 312 305 300 301 300 293 288 286 285 283 280 263 251 252 262 273 287 265 259 244 231 231 234 128 134
340 339 338 337 339 341 336 334 333 331 331 325 324 323 314 306 299 294 290 288 279 278 279 278 263 249 252 247 262 282 309 291 264 241 219 200 210 208
337 338 340 340 346 351 346 343 341 340 340 334 330 326 319 313 306 299 296 293 281 273 274 276 273 255 243 240 252 259 280 303 317 353 352 248 206 209
343 342 342 343 343 338 334 332 336 337 334 327 323 319 316 310 302 298 295 292 288 281 278 278 281 270 253 245 243 243 249 266 265 232 303 322 249 202
Height
1521 1521 1521 1521 1521 1521 1522 1521 1522 1521 1521 1521 1520 1520 1519 1519 1518 1518 1518 1518 1518 1518 1518 1518 1517 1517 1517 1518 1518 1519 1519 1520 1520 1521 1521 1522 1522 1522
1519 1519 1519 1519 1519 1520 1519 1519 1520 1520 1519 1519 1519 1518 1518 1517 1517 1516 1516 1516 1516 1515 1515 1515 1515 1515 1515 1515 1515 1516 1516 1517 1517 1518 1518 1518 1519 1519
1517 1517 1517 1517 1517 1517 1517 1517 1517 1517 1517 1516 1517 1516 1516 1515 1514 1514 1514 1513 1513 1513 1513 1513 1513 1512 1512 1512 1512 1512 1513 1513 1514 1514 1514 1515 1515 1516
1514 1514 1514 1514 1514 1514 1514 1514 1514 1514 1515 1514 1514 1514 1513 1513 1512 1512 1511 1511 1511 1510 1510 1510 1510 1509 1509 1509 1509 1509 1510 1510 1510 1511 1511 1512 1512 1513
1512 1511 1511 1512 1511 1512 1511 1511 1511 1512 1512 1511 1510 1510 1510 1510 1509 1509 1509 1509 1508 1508 1507 1507 1507 1506 1506 1506 1506 1506 1506 1506 1507 1507 1508 1508 1509 1509
1509 1509 1508 1508 1509 1509 1509 1508 1508 1508 1508 1508 1508 1507 1507 1507 1507 1506 1506 1506 1506 1505 1504 1504 1503 1503 1503 1502 1502 1502 1502 1503 1503 1503 1504 1504 1505 1506
1506 1506 1505 1505 1505 1506 1505 1505 1505 1505 1505 1505 1505 1504 1504 1504 1503 1503 1503 1502 1502 1502 1500 1500 1499 1499 1498 1498 1498 1498 1498 1499 1499 1499 1500 1500 1501 1502
1503 1503 1503 1502 1502 1502 1502 1502 1502 1502 1501 1501 1501 1501 1501 1501 1501 1500 1500 1499 1498 1499 1497 1496 1495 1494 1494 1494 1494 1494 1494 1494 1495 1495 1496 1496 1497 1497
1500 1499 1500 1499 1499 1498 1498 1498 1498 1498 1498 1498 1498 1497 1498 1497 1497 1497 1496 1495 1495 1495 1494 1492 1492 1491 1490 1489 1490 1490 1490 1490 1490 1490 1491 1492 1492 1493
1496 1496 1496 1495 1496 1495 1495 1495 1494 1494 1494 1494 1494 1494 1494 1494 1494 1493 1492 1491 1491 1490 1490 1489 1488 1487 1487 1486 1486 1486 1486 1486 1486 1486 1486 1487 1488 1488
1493 1493 1493 1492 1492 1492 1492 1491 1491 1491 1491 1490 1490 1490 1490 1490 1489 1489 1488 1488 1486 1485 1486 1485 1484 1483 1483 1482 1482 1482 1482 1482 1483 1482 1483 1483 1484 1484
1490 1490 1490 1489 1489 1489 1488 1488 1487 1487 1487 1486 1485 1485 1485 1484 1484 1484 1483 1483 1482 1481 1481 1481 1480 1480 1479 1478 1478 1478 1478 1478 1478 1479 1479 1479 1480 1480
1487 1486 1486 1486 1485 1485 1485 1484 1484 1483 1483 1482 1481 1480 1480 1479 1479 1479 1479 1478 1478 1477 1477 1477 1476 1476 1475 1474 1474 1474 1474 1474 1474 1474 1475 1475 1476 1476
1484 1483 1483 1483 1482 1481 1481 1480 1480 1479 1479 1478 1477 1476 1476 1475 1475 1474 1474 1473 1473 1473 1473 1473 1472 1471 1471 1470 1469 1469 1469 1469 1470 1470 1470 1471 1471 1472
1481 1480 1480 1479 1478 1477 1477 1477 1476 1475 1475 1474 1473 1473 1472 1472 1471 1470 1469 1469 1468 1467 1467 1467 1467 1467 1466 1466 1465 1465 1465 1465 1465 1466 1466 1466 1467 1467
1477 1477 1477 1476 1475 1474 1474 1473 1472 1472 1471 1470 1469 1469 1468 1468 1467 1466 1465 1464 1463 1462 1462 1462 1462 1461 1461 1460 1460 1460 1461 1460 1460 1461 1461 1461 1462 1462
1474 1474 1473 1473 1472 1471 1470 1470 1469 1468 1467 1466 1465 1465 1464 1463 1462 1461 1460 1459 1459 1458 1457 1457 1456 1456 1456 1455 1455 1455 1455 1455 1455 1455 1456 1456 1456 1457
1472 1471 1471 1470 1470 1468 1468 1467 1466 1465 1464 1463 1462 1461 1460 1459 1458 1457 1456 1455 1454 1453 1452 1452 1452 1451 1450 1450 1451 1450 1450 1450 1450 1450 1450 1451 1451 1452
1470 1469 1469 1469 1467 1466 1465 1464 1463 1462 1461 1459 1458 1457 1456 1454 1453 1452 1451 1450 1449 1449 1448 1448 1447 1446 1446 1445 1445 1445 1445 1444 1444 1445 1445 1445 1445 1446
1468 1467 1467 1466 1465 1464 1462 1461 1459 1458 1457 1455 1454 1453 1451 1450 1449 1448 1446 1446 1445 1444 1444 1443 1443 1442 1442 1441 1440 1440 1440 1440 1439 1439 1440 1440 1441 1441
1466 1465 1464 1463 1462 1460 1459 1458 1456 1455 1453 1452 1450 1449 1447 1446 1445 1443 1442 1441 1441 1440 1439 1438 1438 1438 1437 1437 1436 1435 1435 1435 1435 1435 1435 1435 1436 1436
1464 1463 1462 1461 1459 1457 1456 1455 1453 1452 1451 1449 1447 1446 1444 1442 1441 1439 1438 1437 1436 1435 1435 1434 1434 1433 1432 1432 1430 1430 1430 1430 1430 1430 1430 1431 1431 1431
1462 1460 1459 1458 1456 1455 1453 1452 1451 1449 1448 1446 1444 1442 1440 1439 1437 1435 1434 1433 1432 1431 1430 1429 1429 1428 1428 1427 1427 1426 1426 1426 1426 1426 1427 1427 1428 1428